Wind_Speed
9 6 12 13 9 17 21 8 4 6 6 7 9 9 11 13 13 13 13 14 13 8 10 13 18 20 20 21 20 21 21 22 22 22 23 21 19 17 16 17 17 15 16 18 15 14 16 15 17
6 7 6 11 8 10 12 14 3 3 3 5 7 8 11 12 14 16 14 12 13 9 6 6 10 16 18 17 17 19 21 21 19 19 19 17 15 18 17 17 15 12 13 17 18 16 17 18 19
11 7 9 7 12 12 10 11 8 9 8 9 11 12 13 15 16 16 13 13 13 10 5 1 6 9 14 15 14 14 19 18 17 16 15 13 14 14 11 11 13 14 15 17 18 20 20 18 20
14 12 7 7 9 13 13 12 10 12 13 13 14 15 16 16 16 17 18 18 15 11 4 3 4 6 11 13 14 15 19 17 15 16 14 12 11 9 10 11 9 11 14 14 15 14 18 20 23
18 10 17 7 7 9 11 8 10 14 15 15 14 16 17 18 20 21 22 22 20 14 7 4 6 0 5 8 9 11 19 16 14 14 13 11 10 8 13 12 8 8 11 15 15 15 18 21 23
19 14 15 18 19 13 10 7 8 9 12 13 16 16 18 20 21 22 24 22 19 13 6 7 6 7 2 3 1 2 14 15 15 18 18 16 12 11 13 17 16 14 14 15 15 16 19 21 23
22 17 22 13 13 15 13 10 11 10 12 14 17 18 20 21 23 24 25 23 18 14 10 11 7 11 6 5 6 3 7 13 13 17 16 18 15 14 16 15 19 16 16 19 14 16 21 22 23
23 24 27 26 21 17 17 17 14 11 11 14 15 19 18 19 25 27 28 23 20 18 15 13 14 10 9 10 8 6 6 7 8 13 13 15 14 14 15 16 17 15 19 21 15 19 23 25 25
26 24 22 27 21 17 17 18 17 13 12 14 16 17 21 26 29 27 19 16 14 15 16 17 16 15 11 14 13 10 9 8 7 7 7 7 11 11 10 16 15 13 17 18 20 18 20 26 27
24 26 26 23 19 12 10 13 20 17 15 17 18 19 26 25 20 14 9 9 8 10 14 16 18 20 19 15 16 14 14 12 10 6 6 6 7 7 6 7 14 13 14 15 15 20 20 23 29
26 18 21 21 25 14 14 21 23 22 16 15 17 19 22 17 12 9 9 9 12 12 6 10 16 19 21 16 15 10 15 19 15 10 9 10 5 6 6 10 7 7 13 15 15 15 23 26 25
12 23 24 20 26 20 22 20 21 18 17 16 13 16 12 9 3 4 10 14 15 15 13 9 5 13 20 21 24 12 11 22 19 16 13 12 7 5 4 6 12 9 11 15 19 13 19 23 25
25 26 25 31 24 20 20 21 19 17 13 8 10 10 7 3 1 5 9 13 16 15 13 8 7 8 15 22 27 24 20 20 25 22 16 16 10 7 4 1 4 5 8 13 19 18 19 21 24
15 23 28 31 31 26 20 20 17 13 10 5 6 6 6 2 5 8 12 16 17 14 12 15 13 14 16 15 20 26 30 25 24 27 21 19 12 11 4 3 4 6 8 11 11 17 17 19 22
12 15 13 16 18 20 22 18 17 15 13 8 6 5 7 8 9 14 14 15 17 14 15 20 19 17 16 12 16 21 28 34 29 31 25 24 18 15 10 9 3 8 9 12 11 12 18 18 18
9 9 12 12 17 17 17 19 16 13 12 13 12 9 9 9 10 12 13 16 17 17 17 18 17 16 18 11 13 14 14 23 35 29 31 30 24 18 17 11 8 5 9 13 12 13 16 16 12
15 15 14 17 15 14 17 20 19 16 15 15 16 13 15 14 14 15 15 16 13 15 17 18 16 14 14 13 17 17 14 17 26 34 33 36 30 22 19 15 12 8 11 13 15 12 17 17 18
22 22 18 16 17 15 18 22 21 20 20 17 17 18 18 20 19 17 15 15 14 17 19 20 20 16 14 17 22 23 20 17 21 30 30 36 35 30 28 20 20 16 11 12 14 15 17 14 17
26 26 28 21 19 19 22 24 27 24 22 22 21 22 19 22 26 30 22 19 16 17 19 20 21 19 19 20 23 23 21 21 19 24 31 37 35 39 35 29 26 23 13 11 14 16 14 16 16
25 23 29 25 21 18 28 25 29 25 25 27 28 29 27 23 22 30 34 28 24 22 22 17 18 18 22 25 26 25 26 25 20 16 28 36 42 37 41 34 30 25 22 18 16 16 15 14 13
42 35 30 28 33 32 22 26 31 29 30 30 31 35 35 32 34 31 30 28 28 27 25 21 20 21 23 27 31 25 24 24 23 15 24 32 39 38 34 35 33 29 29 22 20 16 17 18 20
45 49 44 38 39 43 46 44 39 42 38 35 35 38 42 42 37 30 24 16 21 26 26 24 21 25 27 33 32 24 22 26 24 15 14 32 38 40 43 37 36 34 33 27 26 19 18 17 20
44 49 49 48 45 46 50 50 51 49 43 37 36 34 36 39 39 35 33 33 31 28 26 20 27 31 31 32 29 22 21 24 22 17 13 20 32 40 40 41 39 39 38 30 30 24 18 18 20
40 46 48 50 51 52 51 53 51 47 44 41 40 41 37 39 41 44 41 42 37 34 33 33 39 39 35 30 26 20 17 20 19 16 15 11 27 35 46 42 39 37 39 33 29 26 21 20 21
38 42 44 46 50 54 56 57 55 51 46 48 46 44 40 40 40 34 36 40 40 38 34 41 44 31 29 27 22 18 13 13 16 17 15 14 12 30 39 47 43 42 36 34 33 26 24 20 24
42 43 40 43 48 51 52 53 49 45 43 38 34 34 27 31 29 26 28 28 28 31 33 33 35 27 27 20 18 15 11 12 14 18 20 18 16 17 32 40 48 44 39 36 36 31 25 24 26
46 46 45 44 45 45 48 47 38 38 36 37 31 34 32 28 32 21 26 35 30 34 34 28 24 25 23 21 19 16 13 15 18 19 21 25 22 22 24 31 43 47 45 38 35 32 29 25 26
49 51 49 50 49 51 47 42 37 32 34 41 36 35 34 26 30 32 38 43 40 43 29 17 20 25 24 22 21 18 16 17 19 20 21 27 28 25 29 30 34 44 46 46 35 32 29 29 25
51 55 52 51 52 54 48 41 35 37 44 43 35 33 34 33 41 39 41 38 41 38 30 26 26 26 27 23 23 19 19 20 20 22 23 31 30 25 27 33 34 40 46 41 36 34 28 26 23
47 50 49 50 53 52 50 43 38 36 45 47 40 35 41 34 33 34 34 37 37 38 34 36 36 32 31 27 23 22 20 19 20 20 25 31 29 21 19 31 31 36 46 45 37 31 29 27 24
Wind_Direction
142 111 113 110 125 105 53 60 87 78 61 32 27 14 7 7 1 14 13 16 32 29 58 53 71 61 71 76 77 72 72 74 78 85 87 78 75 77 77 70 68 63 44 46 44 48 56 28 19
157 161 168 199 183 187 135 123 94 24 350 333 351 345 341 338 341 348 350 352 352 18 34 51 59 61 69 82 84 80 77 82 80 89 90 79 78 94 72 66 59 55 40 30 35 37 26 19 25
173 211 232 237 181 211 194 209 294 310 323 341 324 329 318 330 325 327 340 347 355 351 1 51 71 63 67 75 82 80 76 84 90 92 94 82 83 88 66 58 58 47 42 38 33 27 22 20 16
199 212 244 226 229 224 228 256 273 282 301 313 313 307 310 317 318 322 323 326 332 337 322 282 98 73 78 63 79 90 74 75 88 93 92 94 103 91 47 46 57 53 36 22 25 23 32 21 19
213 204 194 177 191 215 243 250 267 273 282 303 311 303 308 312 314 312 309 309 310 316 286 280 233 214 92 33 86 90 88 73 84 101 100 106 90 65 44 53 49 42 29 28 31 42 26 25 24
216 236 199 222 237 246 245 257 283 277 281 297 306 308 310 313 307 305 302 302 300 289 272 252 232 198 132 339 107 81 100 86 90 91 85 83 81 64 56 63 61 44 34 28 39 34 21 21 23
220 192 195 195 258 284 281 270 273 273 290 297 310 315 311 311 307 301 296 298 296 274 261 238 196 203 235 244 270 197 119 102 101 96 93 91 81 71 60 55 61 46 32 34 41 32 21 12 18
224 224 240 264 271 264 266 255 261 269 291 312 309 307 322 318 314 302 301 301 291 271 255 251 226 229 221 217 228 223 177 124 116 100 101 100 79 66 53 45 49 36 38 54 51 32 24 26 21
236 237 246 255 262 244 245 257 258 268 282 288 304 311 316 313 312 315 322 313 293 268 253 244 241 252 203 222 214 208 213 182 163 119 123 104 96 83 60 52 50 28 40 33 42 22 20 25 20
235 229 234 241 234 209 235 268 284 275 281 284 298 300 309 319 323 330 331 323 325 300 253 242 244 247 238 228 221 241 226 221 196 174 175 143 111 82 66 60 60 38 39 27 28 28 30 26 22
228 242 234 227 223 234 283 290 282 270 278 287 296 311 318 328 322 358 38 49 28 16 333 270 251 254 259 232 234 240 248 231 203 201 209 182 148 119 53 46 39 35 49 21 29 25 26 29 17
218 236 237 230 228 257 273 275 273 267 266 281 301 310 321 315 358 31 36 25 15 8 16 14 297 277 267 262 257 230 239 221 208 212 229 217 210 162 79 65 54 76 44 30 22 18 3 10 13
236 255 236 224 254 264 255 262 260 254 251 274 308 307 300 242 252 14 18 4 359 350 354 360 358 343 283 272 262 253 233 224 218 210 223 230 201 224 151 67 69 40 15 30 44 22 12 17 9
240 252 251 249 246 248 241 250 252 248 237 259 280 288 287 276 253 301 342 344 338 334 329 337 335 334 331 296 269 260 251 234 233 222 219 224 222 233 270 266 35 41 4 24 28 23 17 13 11
235 254 234 239 237 233 234 235 240 241 250 238 245 250 228 244 300 317 326 335 328 311 314 316 322 320 333 313 309 281 260 254 230 223 216 222 225 227 249 266 319 18 358 11 20 5 7 12 16
222 239 225 230 241 243 227 205 218 234 246 251 244 229 251 265 282 297 312 323 323 329 310 316 320 328 329 348 340 327 294 252 243 213 226 223 227 219 233 244 271 326 358 336 1 4 4 360 359
233 235 210 209 207 207 216 221 220 223 238 253 269 259 261 259 271 294 319 327 325 337 348 339 321 324 323 334 341 336 308 283 260 237 229 223 220 218 230 236 250 278 310 337 326 5 3 345 360
224 227 219 217 231 238 244 231 232 236 242 239 243 266 283 291 283 282 298 322 327 316 328 339 333 314 315 308 324 338 325 296 278 250 229 219 223 222 229 231 251 263 286 307 315 320 345 338 355
231 232 225 233 240 241 237 241 236 238 250 259 263 262 280 296 292 294 286 301 314 316 318 322 334 319 319 323 314 321 334 325 311 251 222 210 224 220 232 238 245 256 260 287 309 313 330 336 343
221 232 226 213 214 230 233 238 241 244 252 263 270 270 274 280 284 285 288 284 292 304 315 313 324 337 331 326 318 323 337 339 321 269 227 226 219 225 227 231 237 245 254 268 287 300 312 327 342
226 229 238 227 228 229 229 232 233 241 251 259 269 277 284 281 281 287 291 286 279 293 298 301 301 308 317 322 323 318 324 331 332 309 235 223 222 208 222 226 231 240 251 257 270 288 294 310 320
236 235 235 243 243 239 242 251 250 249 255 265 273 283 290 291 291 296 302 284 295 304 299 286 292 300 301 311 315 314 317 331 336 317 259 223 218 226 222 228 229 236 243 253 266 278 289 290 301
235 241 238 239 242 244 243 246 253 257 262 267 268 268 273 278 286 287 281 293 298 303 295 287 294 299 292 298 303 307 315 327 338 328 321 228 222 221 230 232 229 233 240 247 262 266 275 284 287
238 242 243 241 244 245 247 251 252 257 261 262 265 267 269 273 277 282 279 281 285 295 289 286 297 296 287 285 289 295 304 318 323 328 320 301 224 223 219 225 228 229 236 240 250 257 262 270 281
241 236 240 243 245 246 248 251 255 261 261 264 269 271 270 269 267 277 286 279 281 279 281 288 294 295 289 281 269 276 287 302 330 337 319 301 266 223 222 219 223 223 227 234 244 248 258 257 274
244 247 243 243 245 249 252 253 257 261 265 269 260 261 272 266 273 278 266 275 281 291 288 284 294 296 288 269 253 259 276 287 296 316 321 312 281 244 226 224 225 224 224 223 237 241 249 254 266
243 249 251 250 250 250 252 254 260 256 255 249 252 254 258 252 266 257 263 287 270 291 302 290 281 289 288 262 243 239 257 278 278 297 319 317 299 263 246 233 225 223 226 221 225 234 242 247 252
250 251 249 251 254 255 257 260 258 256 241 245 251 244 248 258 268 280 282 279 282 294 295 285 293 287 287 267 245 244 248 266 281 295 317 315 301 277 248 236 232 225 226 225 222 229 237 249 242
252 254 255 254 256 258 261 260 256 249 235 240 250 245 253 265 276 269 281 269 273 283 273 268 288 293 291 278 250 243 254 261 279 285 307 315 305 282 253 239 229 226 225 224 227 229 236 239 235
250 253 256 254 253 256 259 260 253 239 243 240 247 242 263 255 265 264 269 269 272 283 282 278 276 277 284 264 262 247 253 262 273 278 304 319 311 289 253 235 234 227 222 222 226 223 223 226 233
Height
11059 11060 11060 11064 11064 11065 11059 11064 11065 11064 11063 11063 11062 11062 11062 11063 11064 11065 11063 11061 11061 11060 11058 11056 11052 11049 11045 11042 11040 11037 11035 11033 11032 11032 11031 11030 11029 11028 11027 11026 11026 11026 11023 11021 11019 11018 11016 11014 11013
11060 11059 11055 11061 11065 11066 11067 11067 11066 11066 11064 11064 11063 11062 11063 11064 11065 11066 11065 11063 11062 11061 11060 11059 11056 11053 11050 11046 11044 11040 11038 11036 11036 11035 11035 11034 11032 11031 11029 11028 11028 11027 11025 11024 11023 11020 11018 11016 11016
11063 11061 11061 11063 11065 11067 11068 11067 11066 11065 11066 11063 11063 11064 11064 11064 11065 11066 11065 11064 11064 11062 11061 11060 11058 11056 11054 11051 11048 11045 11042 11040 11039 11039 11038 11037 11036 11034 11032 11031 11031 11029 11028 11025 11023 11022 11021 11019 11017
11063 11062 11064 11064 11065 11067 11068 11069 11067 11065 11064 11064 11063 11064 11064 11065 11065 11065 11065 11065 11064 11063 11061 11061 11060 11058 11057 11056 11052 11049 11047 11044 11043 11042 11041 11039 11038 11037 11036 11034 11032 11032 11030 11027 11027 11026 11023 11021 11019
11062 11061 11066 11065 11068 11066 11068 11070 11070 11067 11066 11064 11063 11063 11064 11064 11063 11063 11063 11063 11063 11063 11061 11060 11060 11059 11058 11058 11055 11052 11050 11049 11046 11044 11043 11042 11042 11041 11039 11037 11036 11035 11033 11030 11031 11028 11025 11022 11020
11062 11062 11062 11066 11067 11064 11067 11067 11066 11067 11065 11062 11061 11062 11062 11062 11061 11060 11060 11061 11060 11061 11060 11059 11059 11059 11057 11057 11058 11055 11053 11052 11050 11047 11047 11047 11045 11044 11042 11040 11040 11038 11036 11033 11033 11031 11028 11025 11022
11060 11062 11061 11063 11063 11061 11063 11063 11064 11063 11063 11061 11061 11060 11060 11061 11059 11058 11057 11058 11058 11057 11058 11057 11058 11057 11058 11057 11058 11057 11056 11055 11052 11050 11050 11049 11049 11047 11046 11044 11043 11040 11039 11037 11035 11033 11029 11026 11023
11058 11060 11059 11059 11061 11058 11059 11061 11060 11061 11061 11061 11060 11060 11060 11058 11057 11056 11055 11055 11055 11054 11054 11055 11055 11057 11057 11056 11057 11058 11057 11057 11055 11053 11052 11050 11050 11050 11048 11046 11047 11042 11041 11039 11037 11035 11031 11027 11024
11057 11059 11059 11059 11060 11059 11058 11058 11058 11060 11059 11060 11060 11059 11059 11058 11054 11052 11051 11051 11050 11050 11051 11052 11053 11053 11056 11056 11056 11057 11057 11057 11056 11054 11054 11053 11050 11051 11051 11050 11048 11044 11043 11041 11040 11037 11034 11030 11026
11053 11054 11056 11058 11057 11056 11058 11057 11059 11060 11061 11059 11059 11058 11058 11056 11054 11052 11051 11049 11048 11047 11048 11049 11050 11051 11052 11054 11056 11056 11057 11057 11056 11055 11055 11054 11052 11053 11052 11052 11050 11047 11045 11043 11042 11039 11036 11033 11030
11048 11049 11052 11054 11055 11058 11058 11056 11054 11056 11058 11058 11059 11058 11056 11055 11054 11052 11050 11049 11048 11046 11046 11048 11049 11049 11049 11052 11054 11054 11055 11056 11056 11055 11055 11055 11053 11054 11053 11053 11051 11050 11047 11045 11044 11043 11038 11034 11031
11041 11046 11048 11051 11053 11056 11055 11054 11054 11055 11057 11055 11057 11057 11057 11055 11055 11054 11051 11050 11049 11048 11047 11047 11047 11048 11048 11049 11050 11052 11051 11052 11054 11053 11053 11054 11054 11054 11054 11054 11053 11052 11049 11046 11046 11044 11041 11037 11033
11040 11041 11047 11048 11050 11053 11053 11051 11052 11051 11053 11054 11054 11054 11056 11054 11054 11053 11051 11049 11049 11049 11048 11047 11046 11046 11046 11044 11045 11048 11049 11049 11051 11051 11052 11053 11053 11053 11054 11054 11053 11053 11051 11049 11047 11045 11042 11039 11034
11038 11038 11040 11042 11045 11048 11049 11048 11049 11049 11049 11052 11054 11054 11052 11053 11053 11053 11052 11050 11048 11049 11048 11046 11045 11045 11043 11040 11041 11041 11043 11046 11046 11050 11050 11051 11052 11052 11052 11053 11053 11052 11052 11050 11048 11045 11043 11040 11037
11034 11036 11037 11038 11040 11043 11044 11046 11046 11045 11047 11049 11052 11053 11054 11053 11052 11051 11050 11049 11047 11048 11046 11044 11043 11042 11041 11039 11038 11036 11036 11038 11042 11046 11047 11048 11049 11050 11051 11051 11051 11052 11052 11050 11049 11048 11044 11043 11038
11032 11034 11036 11037 11038 11040 11042 11043 11043 11043 11044 11046 11049 11051 11052 11052 11051 11051 11051 11049 11046 11044 11044 11041 11040 11039 11038 11037 11036 11034 11032 11033 11035 11040 11043 11044 11046 11048 11048 11050 11050 11050 11050 11050 11049 11048 11047 11043 11041
11032 11032 11031 11033 11035 11037 11040 11041 11043 11045 11045 11044 11043 11046 11049 11051 11050 11049 11047 11047 11045 11042 11041 11040 11038 11037 11036 11034 11032 11031 11030 11028 11027 11032 11037 11038 11043 11045 11045 11047 11048 11048 11049 11049 11048 11048 11046 11043 11041
11027 11028 11028 11033 11036 11037 11036 11036 11039 11041 11043 11044 11043 11042 11043 11042 11043 11047 11047 11045 11044 11042 11039 11037 11034 11034 11033 11031 11030 11027 11025 11023 11021 11024 11028 11032 11038 11040 11042 11044 11045 11047 11048 11049 11048 11047 11046 11043 11041
11023 11024 11025 11030 11028 11030 11030 11032 11034 11036 11038 11040 11042 11044 11045 11043 11038 11036 11043 11043 11042 11041 11039 11035 11033 11031 11030 11028 11026 11025 11020 11016 11015 11015 11020 11023 11030 11034 11038 11041 11042 11044 11046 11047 11048 11046 11045 11043 11041
11020 11017 11021 11024 11022 11023 11026 11028 11029 11034 11036 11035 11036 11037 11041 11041 11040 11037 11037 11039 11038 11038 11036 11034 11031 11029 11027 11025 11022 11020 11018 11013 11009 11007 11011 11015 11021 11028 11032 11035 11038 11041 11043 11045 11046 11045 11045 11043 11042
11015 11015 11015 11021 11020 11019 11023 11025 11024 11028 11030 11032 11032 11029 11032 11036 11036 11034 11032 11031 11033 11032 11031 11029 11028 11026 11023 11020 11017 11016 11014 11011 11005 11003 11004 11007 11013 11020 11024 11029 11033 11037 11039 11042 11043 11044 11043 11042 11041
11005 11008 11012 11012 11016 11016 11017 11018 11019 11023 11028 11031 11031 11028 11023 11024 11025 11025 11024 11024 11024 11025 11024 11023 11022 11020 11018 11016 11013 11011 11009 11006 11002 11000 10998 11001 11004 11011 11017 11022 11027 11031 11034 11037 11039 11041 11042 11041 11040
10997 10997 11004 11007 11009 11009 11009 11011 11013 11016 11023 11025 11026 11022 11018 11018 11015 11019 11018 11018 11017 11018 11019 11018 11016 11015 11013 11011 11009 11007 11004 11002 11000 10996 10995 10996 11000 11004 11009 11015 11020 11025 11029 11032 11035 11038 11039 11039 11039
10991 10991 10994 10998 11000 11000 11002 11001 11006 11010 11015 11015 11012 11015 11016 11012 11010 11009 11011 11011 11011 11012 11012 11010 11011 11008 11006 11005 11005 11003 11002 11000 10997 10996 10993 10992 10994 10998 11003 11008 11013 11019 11023 11027 11030 11034 11036 11037 11036
10980 10982 10987 10989 10990 10990 10991 10994 10999 11003 11006 11005 11006 11004 11008 11006 11003 11002 11002 11002 11003 11004 11007 11003 11002 11001 10998 10998 10998 10998 10998 10997 10994 10992 10992 10991 10991 10993 10997 11003 11006 11009 11016 11021 11024 11028 11033 11035 11034
10972 10974 10978 10980 10981 10982 10983 10985 10992 10996 10995 10998 10998 10997 10999 10996 10995 10995 10996 10999 10998 10997 10997 10997 10993 10993 10991 10991 10993 10993 10993 10993 10992 10990 10988 10987 10988 10989 10991 10994 10998 11004 11007 11012 11017 11021 11026 11030 11030
10964 10967 10969 10971 10971 10973 10973 10977 10987 10988 10988 10987 10987 10988 10990 10991 10991 10992 10991 10991 10992 10990 10991 10987 10987 10987 10988 10987 10987 10988 10987 10988 10987 10986 10984 10982 10982 10983 10984 10987 10990 10995 11001 11005 11008 11013 11018 11024 11025
10954 10954 10960 10959 10959 10958 10965 10970 10977 10978 10977 10976 10978 10981 10982 10986 10985 10985 10982 10981 10980 10981 10982 10982 10982 10983 10983 10982 10983 10982 10982 10982 10981 10981 10979 10977 10975 10974 10975 10977 10982 10986 10991 10999 11002 11006 11012 11017 11019
10943 10941 10945 10949 10949 10948 10954 10962 10968 10966 10964 10967 10968 10974 10976 10978 10980 10982 10977 10976 10975 10974 10974 10975 10975 10976 10977 10977 10976 10976 10976 10977 10977 10975 10973 10970 10966 10964 10964 10968 10973 10977 10982 10989 10995 11001 11007 11012 11015
10932 10932 10934 10934 10935 10938 10943 10953 10955 10958 10956 10963 10966 10970 10968 10969 10966 10968 10967 10965 10967 10967 10965 10965 10966 10967 10968 10970 10970 10971 10972 10971 10972 10971 10968 10964 10957 10955 10956 10960 10965 10969 10975 10982 10988 10995 11001 11005 11009